Fort Indiantown Gap, PA

9:25 PM EST on November 21, 2019 (GMT -0500)
Muir Army Air Field

Weather History for KMUI - October, 2019

Change the Weather History Date:

Friday, October 18, 2019

  Actual Average Record
Temperature  
Mean Temperature 50 °F -  
Max Temperature 59 °F 59 °F 83 °F (2016)
Min Temperature 40 °F 43 °F 33 °F (2004)
Degree Days  
Heating Degree Days 15    
Moisture  
Dew Point 35 °F    
Average Humidity 55    
Maximum Humidity 81    
Minimum Humidity 37    
Precipitation  
Precipitation 0.00 in - - ()
Sea Level Pressure  
Sea Level Pressure 29.93 in    
Wind  
Wind Speed 9 mph (WNW)    
Max Wind Speed 16 mph    
Max Gust Speed 26 mph    
Visibility 10 miles    
Events      
Averages and records for this station are not official NWS values.
T = Trace of Precipitation, MM = Missing Value Source: NWS Daily Summary

Daily Weather History Graph

Daily Weather History Graph

Search for Another Location

Airport or City:

Astronomy

Oct. 18, 2019 Rise Set
Actual Time 7:20 AM EDT 6:22 PM EDT
Civil Twilight 6:52 AM EDT 6:49 PM EDT
Nautical Twilight 6:20 AM EDT 7:21 PM EDT
Astronomical Twilight 5:49 AM EDT 7:52 PM EDT
Moon 9:36 PM EDT (10/18) 11:51 AM EDT (10/18)
Length of Visible Light 11h 57m
Length of Day
11h 02m
Waning Gibbous, 79% of the Moon is Illuminated
Oct 18
Waning Gibbous
Oct 21
Last Quarter
Oct 27
New
Nov 4
First Quarter
Nov 12
Full

Hourly Weather History & Observations

Time (EDT) Temp. Windchill Dew Point Humidity Pressure Visibility Wind Dir Wind Speed Gust Speed Precip Events Conditions
12:56 AM 50.4 °F - 37.0 °F 60% 29.78 in 10.0 mi West 15.0 mph 25.3 mph N/A   Overcast
1:56 AM 49.8 °F - 36.5 °F 60% 29.79 in 10.0 mi WNW 12.7 mph 26.5 mph N/A   Partly Cloudy
2:56 AM 49.6 °F - 36.7 °F 61% 29.80 in 10.0 mi WNW 6.9 mph 24.2 mph N/A   Scattered Clouds
3:56 AM 48.7 °F - 36.3 °F 62% 29.80 in 10.0 mi West 11.5 mph 20.7 mph N/A   Clear
4:56 AM 48.6 °F - 36.5 °F 63% 29.83 in 10.0 mi NW 4.6 mph - N/A   Mostly Cloudy
5:56 AM 49.3 °F - 36.3 °F 61% 29.84 in 10.0 mi WNW 6.9 mph 18.4 mph N/A   Overcast
6:56 AM 49.3 °F - 36.0 °F 60% 29.88 in 10.0 mi WNW 6.9 mph - N/A   Overcast
7:56 AM 48.9 °F - 34.9 °F 58% 29.89 in 10.0 mi NW 6.9 mph 21.9 mph N/A   Partly Cloudy
8:56 AM 50.7 °F - 34.7 °F 54% 29.91 in 10.0 mi West 8.1 mph 19.6 mph N/A   Scattered Clouds
9:56 AM 50.5 °F - 35.1 °F 55% 29.93 in 10.0 mi NNE 11.5 mph 23.0 mph N/A   Mostly Cloudy
10:56 AM 51.4 °F - 35.4 °F 54% 29.92 in 10.0 mi NW 4.6 mph 16.1 mph N/A   Scattered Clouds
11:56 AM 54.7 °F - 34.9 °F 47% 29.94 in 10.0 mi West 10.4 mph - N/A   Scattered Clouds
12:42 PM 55.4 °F - 35.6 °F 47% 29.94 in 10.0 mi NNW 16.1 mph 21.9 mph N/A   Mostly Cloudy
12:56 PM 55.9 °F - 34.9 °F 45% 29.94 in 10.0 mi SSW 6.9 mph - N/A   Partly Cloudy
1:56 PM 58.5 °F - 34.2 °F 40% 29.94 in 10.0 mi North 13.8 mph 25.3 mph N/A   Partly Cloudy
2:56 PM 59.7 °F - 34.0 °F 38% 29.94 in 10.0 mi WNW 10.4 mph - N/A   Partly Cloudy
3:14 PM 59.0 °F - 33.8 °F 39% 29.94 in 10.0 mi NNW 13.8 mph 24.2 mph N/A   Partly Cloudy
3:56 PM 59.9 °F - 33.6 °F 37% 29.94 in 10.0 mi NNW 9.2 mph - N/A   Clear
4:56 PM 59.0 °F - 32.7 °F 37% 29.95 in 10.0 mi NW 6.9 mph 19.6 mph N/A   Clear
5:56 PM 57.4 °F - 32.5 °F 39% 29.97 in 10.0 mi NW 6.9 mph - N/A   Clear
6:56 PM 55.4 °F - 32.0 °F 41% 29.99 in 10.0 mi West 3.5 mph - N/A   Clear
7:56 PM 49.6 °F - 35.1 °F 57% 30.01 in 10.0 mi WSW 3.5 mph - N/A   Clear
8:56 PM 47.3 °F - 35.8 °F 64% 30.03 in 10.0 mi SW 3.5 mph - N/A   Clear
9:56 PM 43.0 °F - 36.3 °F 77% 30.06 in 10.0 mi Calm Calm - N/A   Clear
10:56 PM 41.4 °F - 35.6 °F 80% 30.08 in 10.0 mi Calm Calm - N/A   Clear
11:56 PM 40.5 °F 38.4 °F 35.1 °F 81% 30.08 in 10.0 mi SSE 3.5 mph - N/A   Clear